Burnsville, North Carolina, United States (28714)
Lat: 35.92N, Lon: 82.3W
Wx Zone: NCZ049
Local Info
Past Weather Observations for Sunday, October 19, 2014

NOTE: This archive is for the closest National Weather Service station to Burnsville. Information may differ from the station used for current weather conditions.

Click here for Long-term Archive

Time Weather Temperature Dewpoint Humidity Pressure Winds Precip Visibility
23:54
Clear
45°F / 7°C 43°F / 6°C 93% 30.12 in
(1020 mb)
Calm - 10SM
22:54
Clear
45°F / 7°C 43°F / 6°C 93% 30.15 in
(1021 mb)
Calm - 10SM
21:54
Clear
45°F / 7°C 43°F / 6°C 93% 30.15 in
(1021 mb)
Calm - 10SM
20:54
Clear
46°F / 8°C 41°F / 5°C 82% 30.15 in
(1021 mb)
Calm - 10SM
19:54
Clear
48°F / 9°C 41°F / 5°C 76% 30.15 in
(1021 mb)
SW 4.6 mph
(SW 7 kph)
- 10SM
18:54
Clear
54°F / 12°C 39°F / 4°C 58% 30.12 in
(1020 mb)
NW 4.6 mph
(NW 7 kph)
- 10SM
17:54
Clear
57°F / 14°C 39°F / 4°C 51% 30.09 in
(1019 mb)
Calm - 10SM
16:54
Clear
64°F / 18°C 32°F / 0°C 30% 30.09 in
(1019 mb)
NNW 8.1 mph
(NNW 13 kph)
- 10SM
15:54
Clear
66°F / 19°C 28°F / -2°C 24% 30.09 in
(1019 mb)
N 10.4 mph
(N 17 kph)
- 10SM
14:54
Clear
66°F / 19°C 28°F / -2°C 24% 30.09 in
(1019 mb)
N 10.4 mph
(N 17 kph)
- 10SM
13:54
Clear
66°F / 19°C 30°F / -1°C 26% 30.09 in
(1019 mb)
N 11.5 mph
(N 19 kph)
- 10SM
12:54
Clear
63°F / 17°C 36°F / 2°C 37% 30.15 in
(1021 mb)
NNW 15 mph
(NNW 24 kph)
- 10SM
11:54
Clear
59°F / 15°C 37°F / 3°C 45% 30.18 in
(1022 mb)
N 12.7 mph
(N 20 kph)
- 10SM
10:54
Clear
55°F / 13°C 37°F / 3°C 51% 30.18 in
(1022 mb)
N 10.4 mph
(N 17 kph)
- 10SM
09:54
Clear
54°F / 12°C 37°F / 3°C 54% 30.18 in
(1022 mb)
N 16.1 mph
(N 26 kph)
- 10SM
08:54
Clear
50°F / 10°C 37°F / 3°C 62% 30.18 in
(1022 mb)
NNW 18.4 mph
(NNW 30 kph)
- 10SM
07:54
Clear
48°F / 9°C 37°F / 3°C 66% 30.15 in
(1021 mb)
NNW 24.2 mph
(NNW 39 kph)
- 10SM
07:17
Partly Cloudy
48°F / 9°C 39°F / 4°C 71% 30.15 in
(1021 mb)
N 18.4 mph
(N 30 kph)
- 10SM
06:54
Overcast
48°F / 9°C 37°F / 3°C 66% 30.15 in
(1021 mb)
N 13.8 mph
(N 22 kph)
- 10SM
05:54
Overcast
48°F / 9°C 37°F / 3°C 66% 30.15 in
(1021 mb)
N 10.4 mph
(N 17 kph)
- 10SM
04:54
Overcast
48°F / 9°C 37°F / 3°C 66% 30.12 in
(1020 mb)
NW 13.8 mph
(NW 22 kph)
- 10SM
03:54
Overcast
48°F / 9°C 37°F / 3°C 66% 30.09 in
(1019 mb)
NNW 9.2 mph
(NNW 15 kph)
- 10SM
02:54
Overcast
48°F / 9°C 37°F / 3°C 66% 30.04 in
(1017 mb)
NNW 21.9 mph
(NNW 35 kph)
- 10SM
01:54
Overcast
48°F / 9°C 37°F / 3°C 66% 30.04 in
(1017 mb)
N 18.4 mph
(N 30 kph)
- 10SM
00:54
Overcast
48°F / 9°C 37°F / 3°C 66% 30.06 in
(1018 mb)
NNW 16.1 mph
(NNW 26 kph)
- 10SM
00:16
Overcast
50°F / 10°C 37°F / 3°C 62% 30.04 in
(1017 mb)
N 13.8 mph
(N 22 kph)
- 10SM
Time Weather Temperature Dewpoint Humidity Pressure Winds Precip Visibility


Weather for websites

WeatherForYou.com, LLC is not responsible for any damages or problems caused by this service. Current weather conditions are obtained from the closest station including government and personal stations which may have varying degrees of accuracy. Weather forecasts are derived from the NOAA NDFD. Like all things, this site belongs to Jesus Christ... He just trusts me to maintain it. If you have any questions or comments email webmaster@weatherforyou.com

Copyright © 2014, WeatherForYou.com LLC. All rights reserved.